Location: Ch�risy
(50.2331°N, 2.9131°E)
Time: 02:31:21
(UTC+00:00)

Cosmos 1315 Rocket - Pass Details

Date: 17 January 2021
Orbit: 529 x 567 km, 81.2° (Epoch: 28 February)

Event Time Altitude Azimuth Distance (km) Brightness Sun altitude
Rises 18:03:14 0° 343° (NNW) 2,695 6.4 -16.4°
Reaches altitude 10° 18:05:25 10° 339° (NNW) 1,803 5.5 -16.7°
Maximum altitude 18:09:16 53° 263° (W) 670 3.6 -17.3°
Drops below altitude 10° 18:13:09 10° 186° (S) 1,807 5.6 -18.0°
Sets 18:15:20 0° 182° (S) 2,701 6.5 -18.3°
